DW5194 Weather Reports


Display with metric or nautical units.
time (UTC)temp
F
wind
direction
speed
MPH
gust
MPH
rain 1hr
in
rain 24hr
in
rain mn
in
humidity
%
barometer
mb
20190216123905 55 248 5.0 7.0 0.00 0.00 0.00 37 1024.0
20190216123406 55 287 5.0 7.0 0.00 0.00 0.00 37 1024.0
20190216122906 55 248 5.0 7.0 0.00 0.00 0.00 37 1024.0
20190216122405 54 199 5.0 8.0 0.00 0.00 0.00 37 1024.0
20190216121905 54 180 3.0 8.0 0.00 0.00 0.00 37 1024.0
20190216120905 54 180 5.0 5.0 0.00 0.00 0.00 38 1024.0
20190216120405 54 187 5.0 8.0 0.00 0.00 0.00 39 1024.0
20190216115905 54 180 3.0 6.0 0.00 0.00 0.00 39 1024.0
20190216115405 54 308 3.0 5.0 0.00 0.00 0.00 40 1024.0
20190216114905 53 225 5.0 5.0 0.00 0.00 0.00 41 1024.0
20190216113406 52 225 3.0 6.0 0.00 0.00 0.00 41 1024.0
20190216111905 51 202 3.0 5.0 0.00 0.00 0.00 42 1024.0
20190216111406 51 199 3.0 5.0 0.00 0.00 0.00 43 1024.0
20190216110905 51 225 5.0 6.0 0.00 0.00 0.00 43 1024.0
20190216110406 51 180 5.0 7.0 0.00 0.00 0.00 43 1024.0
20190216105905 51 248 5.0 7.0 0.00 0.00 0.00 43 1024.0
20190216104405 51 251 3.0 6.0 0.00 0.00 0.00 43 1024.0
20190216103405 51 233 3.0 5.0 0.00 0.00 0.00 43 1024.0
20190216102405 51 240 2.0 5.0 0.00 0.00 0.00 44 1024.0
20190216101905 50 225 3.0 5.0 0.00 0.00 0.00 44 1024.0
20190216101405 50 248 2.0 5.0 0.00 0.00 0.00 44 1024.0
20190216100905 51 248 2.0 2.0 0.00 0.00 0.00 43 1024.0
20190216095906 51 180 1.0 2.0 0.00 0.00 0.00 42 1024.0
20190216095406 51 180 1.0 2.0 0.00 0.00 0.00 42 1024.0
20190216094905 51 248 1.0 2.0 0.00 0.00 0.00 41 1024.0
20190216094406 50 97 1.0 1.0 0.00 0.00 0.00 42 1024.0
20190216093905 50 135 2.0 3.0 0.00 0.00 0.00 43 1024.0
20190216093405 50 112 1.0 2.0 0.00 0.00 0.00 43 1024.0
20190216092905 50 45 1.0 2.0 0.00 0.00 0.00 44 1024.0
20190216092405 49 151 1.0 2.0 0.00 0.00 0.00 44 1024.0
20190216091906 49 180 0.0 1.0 0.00 0.00 0.00 44 1024.0
20190216091406 50 180 0.0 1.0 0.00 0.00 0.00 44 1024.0
20190216090906 49 180 0.0 1.0 0.00 0.00 0.00 45 1024.0
20190216090405 49 180 1.0 1.0 0.00 0.00 0.00 45 1024.0
20190216085906 49 180 1.0 1.0 0.00 0.00 0.00 45 1024.0
20190216085406 49 180 1.0 1.0 0.00 0.00 0.00 45 1024.0
20190216084905 49 180 1.0 1.0 0.00 0.00 0.00 45 1024.0
20190216084405 49 180 0.0 2.0 0.00 0.00 0.00 44 1024.0
20190216083905 49 180 0.0 1.0 0.00 0.00 0.00 44 1024.0
20190216082905 49 180 0.0 0.0 0.00 0.00 0.00 44 1024.0
20190216081405 48 180 0.0 0.0 0.00 0.00 0.00 45 1024.0
20190216080905 48 180 0.0 0.0 0.00 0.00 0.00 46 1024.0
20190216080405 47 180 0.0 0.0 0.00 0.00 0.00 46 1024.0
20190216075906 48 180 0.0 0.0 0.00 0.00 0.00 45 1024.0
20190216075405 48 180 0.0 1.0 0.00 0.00 0.00 44 1024.0
20190216074905 48 180 0.0 0.0 0.00 0.00 0.00 44 1024.0
20190216073906 47 180 0.0 0.0 0.00 0.00 0.00 44 1024.0
20190216072905 46 180 1.0 0.0 0.00 0.00 0.00 44 1024.0
20190216071405 46 192 2.0 3.0 0.00 0.00 0.00 43 1024.0
20190216070905 47 270 1.0 2.0 0.00 0.00 0.00 43 1024.0
20190216065905 47 270 0.0 0.0 0.00 0.00 0.00 42 1024.0
20190216064905 47 270 1.0 1.0 0.00 0.00 0.00 43 1024.0
20190216063405 46 270 1.0 1.0 0.00 0.00 0.00 44 1024.0
20190216062905 46 270 1.0 2.0 0.00 0.00 0.00 44 1024.0
20190216062405 46 270 1.0 2.0 0.00 0.00 0.00 44 1024.0
20190216061905 46 270 1.0 2.0 0.00 0.00 0.00 46 1024.0
20190216060905 45 270 0.0 0.0 0.00 0.00 0.00 46 1024.0
20190216060405 45 270 0.0 0.0 0.00 0.00 0.00 46 1024.0
20190216055906 45 270 0.0 0.0 0.00 0.00 0.00 46 1024.0
20190216055405 46 270 1.0 0.0 0.00 0.00 0.00 45 1024.0
20190216054405 46 270 2.0 2.0 0.00 0.00 0.00 45 1024.0
20190216053405 46 265 1.0 2.0 0.00 0.00 0.00 46 1024.0
20190216052905 46 270 1.0 2.0 0.00 0.00 0.00 46 1024.0
20190216052405 46 270 1.0 2.0 0.00 0.00 0.00 46 1024.0
20190216051905 46 248 1.0 1.0 0.00 0.00 0.00 46 1024.0
20190216051405 46 248 1.0 1.0 0.00 0.00 0.00 45 1024.0
20190216050905 46 248 2.0 2.0 0.00 0.00 0.00 45 1024.0
20190216050405 46 270 2.0 2.0 0.00 0.00 0.00 45 1024.0
20190216045905 46 270 2.0 2.0 0.00 0.00 0.00 46 1024.0
20190216045405 46 270 2.0 2.0 0.00 0.00 0.00 46 1024.0
20190216044905 46 248 1.0 2.0 0.00 0.00 0.00 46 1024.0
20190216044405 46 292 1.0 1.0 0.00 0.00 0.00 46 1024.0
20190216043905 46 292 1.0 2.0 0.00 0.00 0.00 46 1024.0
20190216042906 46 292 1.0 2.0 0.00 0.00 0.00 46 1024.0
20190216042405 46 286 2.0 3.0 0.00 0.00 0.00 46 1024.0
20190216041905 46 248 2.0 3.0 0.00 0.00 0.00 45 1024.0
20190216040905 46 292 2.0 2.0 0.00 0.00 0.00 46 1024.0
20190216040405 46 292 2.0 3.0 0.00 0.00 0.00 46 1024.0
20190216035905 46 270 2.0 3.0 0.00 0.00 0.00 47 1024.0
20190216035406 46 273 2.0 5.0 0.00 0.00 0.00 47 1024.0
20190216034905 45 270 2.0 2.0 0.00 0.00 0.00 47 1024.0
20190216034405 45 270 2.0 3.0 0.00 0.00 0.00 48 1024.0
20190216033905 46 248 2.0 3.0 0.00 0.00 0.00 46 1024.0
20190216032405 46 248 3.0 5.0 0.00 0.00 0.00 45 1024.0
20190216031905 47 270 3.0 5.0 0.00 0.00 0.00 45 1024.0
20190216031405 47 271 2.0 5.0 0.00 0.00 0.00 45 1024.0
20190216030906 46 292 2.0 5.0 0.00 0.00 0.00 45 1024.0
20190216030405 47 248 3.0 6.0 0.00 0.00 0.00 45 1024.0
20190216025405 47 291 3.0 5.0 0.00 0.00 0.00 45 1024.0
20190216024905 47 315 3.0 5.0 0.00 0.00 0.00 44 1024.0
20190216024405 47 269 3.0 6.0 0.00 0.00 0.00 44 1024.0
20190216023905 47 292 3.0 6.0 0.00 0.00 0.00 44 1024.0
20190216023405 47 270 3.0 5.0 0.00 0.00 0.00 44 1024.0
20190216022905 47 225 3.0 5.0 0.00 0.00 0.00 44 1024.0
20190216021405 47 270 2.0 3.0 0.00 0.00 0.00 44 1024.0
20190216020905 47 270 2.0 3.0 0.00 0.00 0.00 45 1024.0
20190216015905 47 270 2.0 3.0 0.00 0.00 0.00 45 1024.0
20190216015406 47 270 2.0 3.0 0.00 0.00 0.00 45 1024.0
20190216014905 47 270 2.0 3.0 0.00 0.00 0.00 46 1024.0
20190216014405 47 270 2.0 2.0 0.00 0.00 0.00 46 1024.0
20190216013905 47 270 2.0 2.0 0.00 0.00 0.00 46 1024.0
20190216013405 47 268 2.0 3.0 0.00 0.00 0.00 46 1024.0
20190216012405 47 292 2.0 2.0 0.00 0.00 0.00 47 1024.0
20190216011905 47 270 2.0 2.0 0.00 0.00 0.00 47 1024.0
20190216011405 47 270 2.0 2.0 0.00 0.00 0.00 47 1024.0
20190216010905 47 270 2.0 2.0 0.00 0.00 0.00 47 1024.0
20190216010405 47 270 2.0 3.0 0.00 0.00 0.00 48 1024.0
20190216005406 46 270 2.0 3.0 0.00 0.00 0.00 48 1024.0
20190216003905 47 270 2.0 3.0 0.00 0.00 0.00 46 1024.0
20190216002905 47 292 2.0 3.0 0.00 0.00 0.00 46 1024.0
20190216002405 46 292 2.0 2.0 0.00 0.00 0.00 46 1024.0
20190216001905 46 292 2.0 2.0 0.00 0.00 0.00 46 1024.0
20190216001405 46 274 2.0 2.0 0.00 0.00 0.00 45 1024.0
20190216000405 47 292 2.0 5.0 0.00 0.00 0.00 45 1024.0
20190215235905 46 270 2.0 3.0 0.00 0.00 0.00 45 1024.0
20190215235405 47 270 2.0 2.0 0.00 0.00 0.00 44 1024.0
20190215234905 47 270 2.0 3.0 0.00 0.00 0.00 44 1024.0
20190215234404 47 289 2.0 5.0 0.00 0.00 0.00 44 1024.0
20190215232905 46 270 2.0 3.0 0.00 0.00 0.00 44 1024.0
20190215231905 46 248 2.0 2.0 0.00 0.00 0.00 44 1024.0
20190215230905 46 270 2.0 3.0 0.00 0.00 0.00 45 1024.0
20190215225905 46 270 2.0 3.0 0.00 0.00 0.00 46 1024.0
20190215225405 46 270 2.0 3.0 0.00 0.00 0.00 47 1024.0
20190215223905 46 270 2.0 2.0 0.00 0.00 0.00 47 1024.0
20190215223405 46 261 2.0 3.0 0.00 0.00 0.00 47 1024.0
20190215222905 46 270 2.0 3.0 0.00 0.00 0.00 48 1024.0
20190215221905 46 270 2.0 2.0 0.00 0.00 0.00 48 1024.0
20190215221405 46 262 2.0 3.0 0.00 0.00 0.00 48 1024.0
20190215220405 46 248 2.0 3.0 0.00 0.00 0.00 49 1024.0
20190215215905 46 248 2.0 5.0 0.00 0.00 0.00 49 1024.0
20190215215405 46 210 2.0 5.0 0.00 0.00 0.00 48 1024.0
20190215214905 47 225 2.0 2.0 0.00 0.00 0.00 48 1024.0
20190215214405 46 216 2.0 3.0 0.00 0.00 0.00 48 1024.0
20190215213905 46 248 1.0 2.0 0.00 0.00 0.00 46 1024.0
20190215213404 46 208 2.0 2.0 0.00 0.00 0.00 45 1024.0
20190215212905 47 112 2.0 2.0 0.00 0.00 0.00 45 1024.0
20190215212405 47 210 2.0 2.0 0.00 0.00 0.00 45 1024.0
20190215211905 47 22 3.0 3.0 0.00 0.00 0.00 44 1024.0
20190215211406 47 22 3.0 6.0 0.00 0.00 0.00 45 1024.0
20190215210905 48 22 3.0 3.0 0.00 0.00 0.00 44 1024.0
20190215210406 48 55 5.0 5.0 0.00 0.00 0.00 45 1024.0
20190215205906 48 45 5.0 6.0 0.00 0.00 0.00 44 1024.0
20190215205405 48 68 5.0 6.0 0.00 0.00 0.00 44 1024.0
20190215204905 48 89 6.0 8.0 0.00 0.00 0.00 44 1024.0
20190215204404 48 45 6.0 9.0 0.00 0.00 0.00 46 1024.0
20190215203906 48 45 7.0 9.0 0.00 0.00 0.00 45 1024.0
20190215202905 49 45 7.0 8.0 0.00 0.00 0.00 46 1024.0
20190215201905 49 45 7.0 10.0 0.00 0.00 0.00 46 1024.0
20190215200405 50 9 7.0 13.0 0.00 0.00 0.00 46 1024.0
20190215195905 50 45 7.0 8.0 0.00 0.00 0.00 47 1024.0
20190215195405 50 45 7.0 9.0 0.00 0.00 0.00 47 1024.0
20190215194905 50 22 7.0 9.0 0.00 0.00 0.00 48 1024.0
20190215194405 49 22 7.0 8.0 0.00 0.00 0.00 48 1024.0
20190215193906 49 45 7.0 8.0 0.00 0.00 0.00 48 1024.0
20190215193404 50 37 7.0 9.0 0.00 0.00 0.00 48 1024.0
20190215192405 50 37 6.0 9.0 0.00 0.00 0.00 47 1024.0
20190215191905 50 45 6.0 8.0 0.00 0.00 0.00 46 1024.0
20190215191405 50 53 6.0 6.0 0.00 0.00 0.00 46 1024.0
20190215190905 50 68 6.0 8.0 0.00 0.00 0.00 46 1024.0
20190215190405 50 23 6.0 8.0 0.00 0.00 0.00 46 1024.0
20190215185904 50 45 7.0 9.0 0.00 0.00 0.00 45 1024.0
20190215185405 50 29 6.0 9.0 0.00 0.00 0.00 45 1024.0
20190215184906 50 22 6.0 9.0 0.00 0.00 0.00 44 1024.0
20190215184405 50 52 6.0 7.0 0.00 0.00 0.00 44 1024.0
20190215183905 50 68 6.0 7.0 0.00 0.00 0.00 44 1024.0
20190215183405 50 45 6.0 7.0 0.00 0.00 0.00 45 1024.0
20190215182405 50 38 6.0 7.0 0.00 0.00 0.00 44 1024.0
20190215181405 50 38 7.0 9.0 0.00 0.00 0.00 44 1024.0
20190215180905 50 45 7.0 8.0 0.00 0.00 0.00 43 1024.0
20190215175905 51 22 6.0 8.0 0.00 0.00 0.00 41 1024.0
20190215175405 51 22 6.0 8.0 0.00 0.00 0.00 40 1024.0
20190215174905 51 45 6.0 8.0 0.00 0.00 0.00 39 1024.0
20190215174405 51 45 6.0 8.0 0.00 0.00 0.00 38 1024.0
20190215173905 52 22 5.0 7.0 0.00 0.00 0.00 37 1024.0
20190215173405 52 45 5.0 7.0 0.00 0.00 0.00 37 1024.0
20190215172905 52 45 3.0 5.0 0.00 0.00 0.00 37 1024.0
20190215171905 52 90 1.0 2.0 0.00 0.00 0.00 35 1024.0
20190215171405 52 90 1.0 2.0 0.00 0.00 0.00 35 1024.0
20190215170905 52 90 1.0 2.0 0.00 0.00 0.00 35 1024.0
20190215165905 52 90 1.0 2.0 0.00 0.00 0.00 35 1024.0
20190215165405 53 90 0.0 2.0 0.00 0.00 0.00 36 1024.0
20190215164905 53 90 1.0 0.0 0.00 0.00 0.00 36 1024.0
20190215164404 54 94 1.0 3.0 0.00 0.00 0.00 35 1024.0
20190215163905 54 90 0.0 2.0 0.00 0.00 0.00 36 1024.0
20190215163405 54 121 0.0 2.0 0.00 0.00 0.00 36 1024.0
20190215162905 53 158 0.0 0.0 0.00 0.00 0.00 36 1024.0
20190215162405 54 158 0.0 0.0 0.00 0.00 0.00 35 1024.0
20190215161405 55 158 0.0 1.0 0.00 0.00 0.00 34 1024.0
20190215155905 56 225 2.0 2.0 0.00 0.00 0.00 34 1024.0
20190215155404 56 211 2.0 5.0 0.00 0.00 0.00 30 1024.0
20190215154908 57 248 1.0 3.0 0.00 0.00 0.00 28 1024.0
20190215154405 57 112 1.0 2.0 0.00 0.00 0.00 28 1024.0
20190215153905 57 112 1.0 2.0 0.00 0.00 0.00 27 1024.0
20190215153405 57 112 1.0 2.0 0.00 0.00 0.00 26 1024.0
20190215152904 58 90 0.0 1.0 0.00 0.00 0.00 27 1024.0
20190215152404 58 90 1.0 1.0 0.00 0.00 0.00 27 1024.0
20190215151905 58 112 1.0 2.0 0.00 0.00 0.00 27 1024.0
20190215150905 58 112 1.0 2.0 0.00 0.00 0.00 28 1024.0
20190215150405 59 112 1.0 2.0 0.00 0.00 0.00 27 1024.0
20190215145905 59 112 1.0 3.0 0.00 0.00 0.00 28 1024.0
20190215145405 59 129 1.0 3.0 0.00 0.00 0.00 27 1024.0
20190215144905 59 202 1.0 2.0 0.00 0.00 0.00 28 1024.0
20190215144405 59 180 1.0 2.0 0.00 0.00 0.00 27 1024.0
20190215143905 60 270 0.0 2.0 0.00 0.00 0.00 28 1024.0
20190215143404 59 68 1.0 0.0 0.00 0.00 0.00 28 1024.0
20190215142905 58 68 1.0 1.0 0.00 0.00 0.00 28 1024.0
20190215142404 58 144 1.0 2.0 0.00 0.00 0.00 29 1024.0
20190215141905 58 180 2.0 2.0 0.00 0.00 0.00 29 1024.0
20190215141405 58 225 2.0 2.0 0.00 0.00 0.00 35 1024.0
20190215140904 58 225 1.0 3.0 0.00 0.00 0.00 30 1024.0
20190215135905 59 90 0.0 0.0 0.00 0.00 0.00 30 1024.0
20190215135405 58 94 1.0 1.0 0.00 0.00 0.00 30 1024.0
20190215134905 57 90 1.0 2.0 0.00 0.00 0.00 30 1024.0
20190215134405 57 93 1.0 2.0 0.00 0.00 0.00 30 1024.0
20190215133905 58 90 1.0 2.0 0.00 0.00 0.00 30 1024.0
20190215133405 57 93 1.0 2.0 0.00 0.00 0.00 30 1024.0
20190215132905 58 90 1.0 2.0 0.00 0.00 0.00 30 1024.0
20190215132405 58 90 1.0 2.0 0.00 0.00 0.00 30 1024.0
20190215131905 58 180 1.0 2.0 0.00 0.00 0.00 30 1024.0
20190215131405 58 112 1.0 3.0 0.00 0.00 0.00 30 1024.0
20190215130904 58 112 1.0 1.0 0.00 0.00 0.00 30 1024.0